• în Republica Moldova
  • Lista ţărilor
  • Pe 7 zile
  • Temperatura apei
  • Hartă satelitară
  • Meteo pe hartă
  • Widget-uri
  • user-avatar
    Intrare

    Meteo pe oră la Shusha

    Astăzi, 23 Iunie, Vineri

    Timp Temperatura Precipitaţii Vânt Presiune Umiditate
    00:00 +12°C° 0,1 mm 1 m/s 658 mmHg 89%
    01:00 +12°C° 0 mm 1 m/s 658 mmHg 89%
    02:00 +11°C° 0 mm 1 m/s 658 mmHg 90%
    03:00 +11°C° 0 mm 1 m/s 658 mmHg 90%
    04:00 +13°C° 0,1 mm 1 m/s 658 mmHg 86%
    05:00 +14°C° 0,1 mm 1 m/s 659 mmHg 81%
    06:00 +15°C° 0,1 mm 1 m/s 660 mmHg 77%
    07:00 +18°C° 0,1 mm 1 m/s 660 mmHg 70%
    08:00 +18°C° 0,1 mm 2 m/s 661 mmHg 62%
    09:00 +20°C° 0 mm 2 m/s 661 mmHg 55%
    10:00 +21°C° 0,2 mm 2 m/s 661 mmHg 52%
    11:00 +23°C° 0,2 mm 2 m/s 661 mmHg 50%
    12:00 +23°C° 0,2 mm 2 m/s 661 mmHg 48%
    13:00 +24°C° 0,3 mm 2 m/s 661 mmHg 47%
    14:00 +24°C° 0,3 mm 2 m/s 661 mmHg 47%
    15:00 +24°C° 0,3 mm 2 m/s 660 mmHg 46%
    16:00 +24°C° 0,4 mm 2 m/s 660 mmHg 48%
    17:00 +23°C° 0,4 mm 2 m/s 660 mmHg 49%
    18:00 +23°C° 0,4 mm 2 m/s 660 mmHg 51%
    19:00 +19°C° 0,1 mm 2 m/s 660 mmHg 59%
    20:00 +18°C° 0,1 mm 1 m/s 660 mmHg 67%
    21:00 +14°C° 0,1 mm 1 m/s 659 mmHg 76%
    22:00 +14°C° 0,1 mm 1 m/s 659 mmHg 77%
    23:00 +13°C° 0,1 mm 1 m/s 659 mmHg 78%

    Mâine, 24 Iunie, Sâmbătă

    Timp Temperatura Precipitaţii Vânt Presiune Umiditate
    00:00 +13°C° 0,1 mm 1 m/s 660 mmHg 80%
    01:00 +13°C° 0 mm 1 m/s 659 mmHg 81%
    02:00 +12°C° 0 mm 1 m/s 659 mmHg 82%
    03:00 +12°C° 0 mm 1 m/s 659 mmHg 83%
    04:00 +13°C° 0 mm 1 m/s 660 mmHg 80%
    05:00 +15°C° 0 mm 1 m/s 660 mmHg 76%
    06:00 +16°C° 0 mm 1 m/s 661 mmHg 73%
    07:00 +18°C° 0 mm 1 m/s 661 mmHg 66%
    08:00 +20°C° 0 mm 1 m/s 661 mmHg 60%
    09:00 +21°C° 0 mm 2 m/s 662 mmHg 53%
    10:00 +23°C° 0 mm 2 m/s 661 mmHg 50%
    11:00 +24°C° 0 mm 2 m/s 661 mmHg 46%
    12:00 +25°C° 0 mm 2 m/s 661 mmHg 43%
    13:00 +26°C° 0 mm 2 m/s 661 mmHg 42%
    14:00 +26°C° 0 mm 2 m/s 660 mmHg 41%
    15:00 +26°C° 0 mm 2 m/s 660 mmHg 40%
    16:00 +26°C° 0 mm 2 m/s 660 mmHg 43%
    17:00 +25°C° 0 mm 2 m/s 660 mmHg 45%
    18:00 +25°C° 0 mm 2 m/s 659 mmHg 48%
    19:00 +22°C° 0 mm 1 m/s 659 mmHg 56%
    20:00 +19°C° 0 mm 1 m/s 658 mmHg 64%
    21:00 +16°C° 0 mm 1 m/s 658 mmHg 72%
    22:00 +16°C° 0 mm 1 m/s 658 mmHg 71%
    23:00 +16°C° 0 mm 1 m/s 658 mmHg 71%

    Poimâine, 25 Iunie, Duminică

    Timp Temperatura Precipitaţii Vânt Presiune Umiditate
    00:00 +15°C° 0 mm 1 m/s 658 mmHg 70%
    01:00 +15°C° 0 mm 1 m/s 658 mmHg 71%
    02:00 +15°C° 0 mm 1 m/s 658 mmHg 72%
    03:00 +15°C° 0 mm 1 m/s 658 mmHg 73%
    04:00 +16°C° 0 mm 1 m/s 659 mmHg 70%
    05:00 +18°C° 0 mm 1 m/s 659 mmHg 66%
    06:00 +19°C° 0 mm 1 m/s 660 mmHg 63%
    07:00 +21°C° 0 mm 1 m/s 660 mmHg 57%
    08:00 +23°C° 0 mm 2 m/s 660 mmHg 50%
    09:00 +25°C° 0 mm 2 m/s 661 mmHg 44%
    10:00 +26°C° 0,1 mm 2 m/s 661 mmHg 42%
    11:00 +27°C° 0,1 mm 3 m/s 661 mmHg 40%
    12:00 +28°C° 0,1 mm 3 m/s 661 mmHg 38%
    13:00 +28°C° 0,3 mm 3 m/s 661 mmHg 38%
    14:00 +28°C° 0,3 mm 3 m/s 661 mmHg 38%
    15:00 +28°C° 0,3 mm 3 m/s 661 mmHg 38%
    16:00 +27°C° 0,1 mm 3 m/s 660 mmHg 40%
    17:00 +27°C° 0,1 mm 3 m/s 660 mmHg 42%
    18:00 +26°C° 0,1 mm 2 m/s 660 mmHg 44%
    19:00 +23°C° 0 mm 2 m/s 660 mmHg 53%
    20:00 +19°C° 0 mm 2 m/s 660 mmHg 62%
    21:00 +17°C° 0 mm 2 m/s 660 mmHg 71%
    22:00 +16°C° 0 mm 2 m/s 660 mmHg 71%
    23:00 +16°C° 0 mm 2 m/s 660 mmHg 72%

    26 Iunie, Luni

    Timp Temperatura Precipitaţii Vânt Presiune Umiditate
    00:00 +16°C° 0 mm 1 m/s 661 mmHg 72%
    01:00 +15°C° 0 mm 1 m/s 661 mmHg 73%
    02:00 +15°C° 0 mm 1 m/s 660 mmHg 73%
    03:00 +14°C° 0 mm 1 m/s 660 mmHg 74%
    04:00 +16°C° 0 mm 1 m/s 661 mmHg 71%
    05:00 +18°C° 0 mm 1 m/s 662 mmHg 68%
    06:00 +19°C° 0 mm 1 m/s 662 mmHg 66%
    07:00 +20°C° 0 mm 2 m/s 663 mmHg 59%
    08:00 +21°C° 0 mm 2 m/s 663 mmHg 52%
    09:00 +24°C° 0 mm 3 m/s 664 mmHg 45%
    10:00 +25°C° 0 mm 3 m/s 664 mmHg 42%
    11:00 +26°C° 0 mm 3 m/s 663 mmHg 40%
    12:00 +27°C° 0 mm 3 m/s 663 mmHg 37%
    13:00 +27°C° 0 mm 3 m/s 663 mmHg 37%
    14:00 +28°C° 0 mm 3 m/s 663 mmHg 37%
    15:00 +28°C° 0 mm 3 m/s 663 mmHg 37%
    16:00 +27°C° 0 mm 3 m/s 662 mmHg 40%
    17:00 +26°C° 0 mm 3 m/s 662 mmHg 42%
    18:00 +26°C° 0 mm 3 m/s 662 mmHg 45%
    19:00 +23°C° 0 mm 2 m/s 662 mmHg 53%
    20:00 +19°C° 0 mm 2 m/s 661 mmHg 61%
    21:00 +18°C° 0 mm 1 m/s 661 mmHg 69%
    22:00 +16°C° 0 mm 1 m/s 661 mmHg 69%
    23:00 +16°C° 0 mm 1 m/s 661 mmHg 69%

    27 Iunie, Marţi

    Timp Temperatura Precipitaţii Vânt Presiune Umiditate
    00:00 +16°C° 0 mm 1 m/s 661 mmHg 68%
    01:00 +16°C° 0 mm 1 m/s 661 mmHg 70%
    02:00 +15°C° 0 mm 1 m/s 660 mmHg 71%
    03:00 +15°C° 0 mm 1 m/s 660 mmHg 72%
    04:00 +16°C° 0 mm 1 m/s 661 mmHg 68%
    05:00 +19°C° 0 mm 1 m/s 661 mmHg 65%
    06:00 +20°C° 0 mm 1 m/s 662 mmHg 61%
    07:00 +22°C° 0 mm 1 m/s 662 mmHg 53%
    08:00 +24°C° 0 mm 1 m/s 663 mmHg 46%
    09:00 +26°C° 0 mm 1 m/s 663 mmHg 39%
    10:00 +27°C° 0 mm 2 m/s 663 mmHg 36%
    11:00 +29°C° 0 mm 2 m/s 663 mmHg 34%
    12:00 +30°C° 0 mm 2 m/s 663 mmHg 32%
    13:00 +30°C° 0 mm 2 m/s 662 mmHg 31%
    14:00 +31°C° 0 mm 3 m/s 662 mmHg 31%
    15:00 +31°C° 0 mm 3 m/s 662 mmHg 30%
    16:00 +30°C° 0 mm 2 m/s 662 mmHg 33%
    17:00 +29°C° 0 mm 2 m/s 662 mmHg 35%
    18:00 +29°C° 0 mm 2 m/s 662 mmHg 38%
    19:00 +25°C° 0 mm 2 m/s 662 mmHg 46%
    20:00 +21°C° 0 mm 2 m/s 661 mmHg 54%
    21:00 +19°C° 0 mm 1 m/s 661 mmHg 62%
    22:00 +19°C° 0 mm 1 m/s 661 mmHg 62%
    23:00 +19°C° 0 mm 1 m/s 661 mmHg 63%

    28 Iunie, Miercuri

    Timp Temperatura Precipitaţii Vânt Presiune Umiditate
    00:00 +18°C° 0 mm 1 m/s 661 mmHg 63%
    01:00 +18°C° 0 mm 1 m/s 661 mmHg 63%
    02:00 +16°C° 0 mm 1 m/s 661 mmHg 64%
    03:00 +16°C° 0 mm 1 m/s 660 mmHg 65%
    04:00 +18°C° 0 mm 1 m/s 661 mmHg 62%
    05:00 +20°C° 0 mm 1 m/s 662 mmHg 58%
    06:00 +21°C° 0 mm 1 m/s 662 mmHg 55%
    07:00 +23°C° 0 mm 1 m/s 662 mmHg 48%
    08:00 +25°C° 0 mm 2 m/s 663 mmHg 41%
    09:00 +27°C° 0 mm 2 m/s 663 mmHg 34%
    10:00 +28°C° 0 mm 2 m/s 663 mmHg 32%
    11:00 +29°C° 0 mm 3 m/s 663 mmHg 30%
    12:00 +30°C° 0 mm 3 m/s 663 mmHg 29%
    13:00 +30°C° 0 mm 3 m/s 662 mmHg 28%
    14:00 +32°C° 0 mm 4 m/s 662 mmHg 28%
    15:00 +32°C° 0 mm 4 m/s 661 mmHg 28%
    16:00 +30°C° 0 mm 4 m/s 661 mmHg 30%
    17:00 +29°C° 0 mm 3 m/s 661 mmHg 33%
    18:00 +28°C° 0 mm 3 m/s 660 mmHg 36%
    19:00 +25°C° 0 mm 3 m/s 660 mmHg 43%
    20:00 +21°C° 0 mm 2 m/s 659 mmHg 50%
    21:00 +19°C° 0 mm 1 m/s 659 mmHg 57%
    22:00 +19°C° 0 mm 1 m/s 659 mmHg 57%
    23:00 +18°C° 0 mm 1 m/s 659 mmHg 56%
    Arată mai mult